Weather History for KLHQ - April, 2014

Change the Weather History Date:

Friday, April 11, 2014

  Actual Average (KCMH) Record (KCMH)
Temperature  
Mean Temperature 57 °F 52 °F  
Max Temperature 69 °F 62 °F 88 °F (1930)
Min Temperature 44 °F 41 °F 23 °F (1882)
Degree Days  
Heating Degree Days 8 14  
Month to date heating degree days 171  
Since 1 July heating degree days 4882  
Cooling Degree Days 0 0  
Month to date cooling degree days 0  
Year to date cooling degree days 0  
Growing Degree Days 7 (Base 50)    
Moisture  
Dew Point 47 °F    
Average Humidity 65    
Maximum Humidity 89    
Minimum Humidity 36    
Precipitation  
Precipitation 0.14 in 0.11 in 1.33 in (1948)
Month to date precipitation 1.24  
Year to date precipitation 9.24  
Snow  
Snow 0.00 in 0.10 in 0.20 in (1990)
Month to date snowfall 0.7  
Since 1 July snowfall 26.3  
Snow Depth -    
Sea Level Pressure  
Sea Level Pressure 30.00 in    
Wind  
Wind Speed 10 mph (West)    
Max Wind Speed 21 mph    
Max Gust Speed 32 mph    
Visibility 10 miles    
Events Rain    
T = Trace of Precipitation, MM = Missing Value Source: NWS Daily Summary

Daily Weather History Graph

Daily Weather History Graph

Search for Another Location

Airport or City:

Trip Planner

Search our weather history database for the weather conditions in past years. The results will help you decide how hot, cold, wet, or windy it might be!

Date:

Astronomy

Apr. 11, 2014 Rise Set
Actual Time 6:59 AM EDT 8:04 PM EDT
Civil Twilight 6:31 AM EDT 8:32 PM EDT
Nautical Twilight 5:58 AM EDT 9:05 PM EDT
Astronomical Twilight 5:24 AM EDT 9:40 PM EDT
Moon 4:44 PM EDT (4/11) 4:53 AM EDT (4/11)
Length of Visible Light 14h 01m
Length of Day
13h 05m
Waxing Gibbous, 87% of the Moon is Illuminated
Apr 11
Waxing Gibbous
Apr 15
Full
Apr 22
Last Quarter
Apr 29
New
May 6
First Quarter

Hourly Weather History & Observations

Time (EDT) Temp. Dew Point Humidity Pressure Visibility Wind Dir Wind Speed Gust Speed Precip Events Conditions
12:53 AM 66.9 °F 39.0 °F 36% 29.93 in 10.0 mi WSW 15.0 mph 26.5 mph N/A   Overcast
1:07 AM 66.0 °F 39.9 °F 38% 29.99 in 10.0 mi WNW 20.7 mph 32.2 mph N/A   Overcast
1:53 AM 62.1 °F 48.0 °F 60% 30.00 in 10.0 mi NW 10.4 mph - N/A   Overcast
2:53 AM 57.9 °F 51.1 °F 78% 29.99 in 10.0 mi SSE 3.5 mph - 0.00 in Rain Light Rain
3:53 AM 55.9 °F 52.0 °F 87% 29.98 in 10.0 mi NNW 4.6 mph - 0.02 in   Overcast
4:53 AM 57.0 °F 51.1 °F 81% 29.99 in 5.0 mi SW 9.2 mph - 0.06 in Rain Light Rain
5:53 AM 55.9 °F 51.1 °F 84% 29.96 in 10.0 mi South 6.9 mph - 0.05 in Rain Light Rain
6:53 AM 57.0 °F 50.0 °F 77% 29.96 in 8.0 mi South 8.1 mph - 0.01 in Rain Light Rain
7:53 AM 55.9 °F 48.9 °F 77% 29.96 in 10.0 mi South 8.1 mph - 0.00 in   Overcast
8:53 AM 57.0 °F 46.9 °F 69% 29.97 in 10.0 mi South 11.5 mph - N/A   Overcast
9:53 AM 57.9 °F 46.9 °F 67% 29.97 in 10.0 mi SSW 6.9 mph - N/A   Overcast
10:53 AM 60.1 °F 48.0 °F 64% 29.99 in 10.0 mi West 3.5 mph - 0.00 in   Overcast
11:53 AM 61.0 °F 48.0 °F 62% 30.00 in 10.0 mi West 10.4 mph - N/A   Overcast
12:53 PM 63.0 °F 48.9 °F 60% 29.99 in 10.0 mi WSW 16.1 mph 23.0 mph N/A   Overcast
1:53 PM 64.9 °F 50.0 °F 58% 29.99 in 10.0 mi WSW 11.5 mph 19.6 mph N/A   Overcast
2:53 PM 66.9 °F 50.0 °F 54% 29.99 in 10.0 mi West 13.8 mph 24.2 mph N/A   Scattered Clouds
3:53 PM 68.0 °F 53.1 °F 59% 29.99 in 10.0 mi NW 12.7 mph 23.0 mph N/A   Partly Cloudy
4:53 PM 68.0 °F 48.9 °F 50% 29.99 in 10.0 mi NW 11.5 mph 17.3 mph N/A   Partly Cloudy
5:53 PM 66.0 °F 46.0 °F 48% 30.00 in 10.0 mi NNW 15.0 mph 19.6 mph N/A   Partly Cloudy
6:53 PM 64.9 °F 43.0 °F 45% 30.01 in 10.0 mi NW 9.2 mph - N/A   Partly Cloudy
7:53 PM 62.1 °F 43.0 °F 50% 30.02 in 10.0 mi NW 4.6 mph - N/A   Clear
8:53 PM 55.0 °F 43.0 °F 64% 30.05 in 10.0 mi North 3.5 mph - N/A   Clear
9:53 PM 48.9 °F 44.1 °F 83% 30.09 in 10.0 mi Calm Calm - N/A   Clear
10:53 PM 46.0 °F 42.1 °F 86% 30.09 in 10.0 mi Calm Calm - N/A   Clear
11:53 PM 44.1 °F 41.0 °F 89% 30.11 in 10.0 mi Calm Calm - N/A   Clear